Regional Weather Roundup
Issued by NWS

Home | Current Version | Previous Version | Graphics & Text | Print | Product List | Glossary On
Versions: 1 2 3 4 5 6 7 8 9 10 11 12 13 14 15 16 17 18 19 20 21 22 23 24 25 26 27 28 29 30 31 32 33 34 35 36 37 38 39 40 41 42 43 44 45 46 47 48 49 50
000
ASUS45 KABQ 010210
RWRNM
NEW MEXICO REGIONAL WEATHER ROUNDUP
NATIONAL WEATHER SERVICE ALBUQUERQUE NM
800 PM MDT SAT APR 30 2016

NOTE: "FAIR" MEANS FEW OR NO CLOUDS BELOW 12,000 FEET AGL WITH NO
       SIGNIFICANT WEATHER OR OBSTRUCTIONS TO VISION.

      THIS PRODUCT IS RELEASED AS TWO VERSIONS.  ONE VERSION NEAR
      THE TOP OF THE HOUR CONTAINING PRELIMINARY DATA FROM ALBUQUERQUE
      AND OTHER STATIONS.  A FINAL VERSION WITH ADDITIONAL DATA IS
      ISSUED ABOUT 10 MINUTES AFTER THE HOUR.

NMZ501-503-504-510>518-010300-
NORTHWEST PLATEAU/NORTHCENTRAL MOUNTAINS

CITY           SKY/WX    TMP DP  RH WIND       PRES   REMARKS
FARMINGTON     FAIR      50  32  50 W12       29.85R
LOS ALAMOS     CLOUDY    47  31  52 SW7       29.91S
SANTA FE       CLOUDY    52  30  43 NW3       29.87R
TAOS           FAIR      45  28  53 E18       29.90R
ANGEL FIRE     CLOUDY    37  29  75 SE10      29.99R WCI  29

$$
NMZ402-403-502-505>509-010300-
WESTCENTRAL MOUNTAINS/SOUTHWEST MOUNTAINS

CITY           SKY/WX    TMP DP  RH WIND       PRES   REMARKS
GALLUP         CLOUDY    44  38  79 E9        29.89R
GRANTS         LGT RAIN  42  39  89 W14       29.93S
SILVER CITY      N/A     63  25  23 NW8       29.79R

$$
NMZ407-409-411-412-010300-
SOUTHERN DESERTS

CITY           SKY/WX    TMP DP  RH WIND       PRES   REMARKS
LORDSBURG      CLOUDY    68  27  21 NW12      29.70R
DEMING         FAIR      72  17  12 SW12G21   29.71R
LAS CRUCES     FAIR      68  15  13 E3        29.75R
HOLLOMAN AFB   FAIR      70  17  13 S12       29.73R
ALAMOGORDO     FAIR      66  18  15 SE8       29.76R
T OR C         MOCLDY    67  21  17 W7        29.74R

$$
NMZ519>523-010300-
CENTRAL VALLEYS/CENTRAL HIGHLANDS

CITY           SKY/WX    TMP DP  RH WIND       PRES   REMARKS
ALBUQUERQUE    CLOUDY    51  44  77 N8        29.89R
DOUBLE EAGLE   LGT RAIN  46  41  81 S7        29.92R
MORIARTY ARPT  LGT RAIN  46  40  78 N8        29.92F
CLINES CORNERS LGT RAIN  46  32  58 SE8G17    29.94R
BELEN          MOCLDY    53  39  60 N8        29.86R
SOCORRO        CLOUDY    61  31  33 N5        29.80R

$$
NMZ524>526-539-540-010300-
SOUTHCENTRAL MOUNTAINS

CITY           SKY/WX    TMP DP  RH WIND       PRES   REMARKS
RUIDOSO          N/A     55  23  28 E5        29.92R

$$
NMZ527>531-010300-
NORTHEAST HIGHLANDS/NORTHEAST PLAINS

CITY           SKY/WX    TMP DP  RH WIND       PRES   REMARKS
LAS VEGAS      RAIN      38  36  92 N16       29.99R WCI  29
RATON          CLOUDY    35  27  72 N17       30.02R WCI  25
CLAYTON        CLOUDY    43  29  57 N18G28    30.01R

$$
NMZ532>537-010300-
EASTCENTRAL PLAINS

CITY           SKY/WX    TMP DP  RH WIND       PRES   REMARKS
TUCUMCARI      CLOUDY    57  36  45 NE23      29.92R
CANNON AFB     MOCLDY    54  44  69 NE16      29.89R
CLOVIS AIRPORT FAIR      54  39  58 NE15      29.91R

$$
NMZ028-029-538-010300-
SOUTHEAST PLAINS

CITY           SKY/WX    TMP DP  RH WIND       PRES   REMARKS
ROSWELL        MOCLDY    71  30  21 N16       29.75R
ARTESIA        FAIR      70  25  18 SW6       29.75R
CARLSBAD       FAIR      71  20  14 CALM      29.73R
HOBBS          FAIR      72  23  16 S6        29.79R


$$




USA.gov is the U.S. government's official web portal to all federal, state and local government web resources and services.